contact:dominique.lefevre@mio.osupytheas.fr, maurice.libes@osupytheas.fr, didier.mallarino@osupytheas.fr
Project:EMSO http://www.emso-fr.org/EMSO-France
Depth: 2436.0 m
Title:EMSO Ligure Ouest : Data MII capteur CSTAR
DateTime,Latitude,Longitude,Instrument_Serial,Reference_Counts,Signal_Counts,Corrected_Signal_raw_counts,Calculated_Beam_c_inverse_meters,Internal_thermistor_counts
DateTime,Latitude,Longitude,Instrument_Serial,Reference_Counts,Signal_Counts,Corrected_Signal_raw_counts,Calculated_Beam_c_inverse_meters,Internal_thermistor_counts
2021-04-16T00:01:18,42.805,6.029,CST-1368DR,5536,7729,14996,0.162,551
2021-04-16T00:04:20,42.805,6.029,CST-1368DR,5536,7730,14998,0.162,551
2021-04-16T00:07:21,42.805,6.029,CST-1368DR,5536,7729,14997,0.162,551
2021-04-16T00:10:23,42.805,6.029,CST-1368DR,5536,7730,14999,0.161,551
2021-04-16T00:13:24,42.805,6.029,CST-1368DR,5536,7730,14998,0.162,551
2021-04-16T00:16:26,42.805,6.029,CST-1368DR,5536,7726,14992,0.163,551
2021-04-16T00:19:28,42.805,6.029,CST-1368DR,5536,7729,14997,0.162,551
2021-04-16T00:22:29,42.805,6.029,CST-1368DR,5536,7730,14999,0.161,551
2021-04-16T00:25:31,42.805,6.029,CST-1368DR,5536,7727,14993,0.163,551
2021-04-16T00:28:32,42.805,6.029,CST-1368DR,5536,7728,14995,0.162,551
2021-04-16T00:31:34,42.805,6.029,CST-1368DR,5536,7730,14998,0.162,551
2021-04-16T00:34:35,42.805,6.029,CST-1368DR,5536,7729,14998,0.162,551
2021-04-16T00:37:37,42.805,6.029,CST-1368DR,5536,7729,14997,0.162,551
2021-04-16T00:40:39,42.805,6.029,CST-1368DR,5536,7729,14998,0.162,551
2021-04-16T00:43:40,42.805,6.029,CST-1368DR,5536,7730,14999,0.161,551
2021-04-16T00:46:42,42.805,6.029,CST-1368DR,5536,7730,14998,0.162,551
2021-04-16T00:49:43,42.805,6.029,CST-1368DR,5536,7731,15000,0.161,551
2021-04-16T00:52:45,42.805,6.029,CST-1368DR,5536,7730,14999,0.161,551
2021-04-16T00:55:46,42.805,6.029,CST-1368DR,5536,7730,14999,0.161,551
2021-04-16T00:58:48,42.805,6.029,CST-1368DR,5536,7730,14998,0.162,551
2021-04-16T01:01:50,42.805,6.029,CST-1368DR,5536,7730,14999,0.161,551
2021-04-16T01:04:51,42.805,6.029,CST-1368DR,5536,7729,14998,0.162,551
2021-04-16T01:07:53,42.805,6.029,CST-1368DR,5536,7729,14997,0.162,551
2021-04-16T01:10:54,42.805,6.029,CST-1368DR,5536,7731,15000,0.161,551
2021-04-16T01:13:56,42.805,6.029,CST-1368DR,5536,7730,14999,0.161,551
2021-04-16T01:16:58,42.805,6.029,CST-1368DR,5536,7730,14998,0.162,551
2021-04-16T01:19:59,42.805,6.029,CST-1368DR,5536,7729,14997,0.162,551
2021-04-16T01:23:01,42.805,6.029,CST-1368DR,5536,7729,14998,0.162,551
2021-04-16T01:26:02,42.805,6.029,CST-1368DR,5536,7730,14998,0.162,551
2021-04-16T01:29:04,42.805,6.029,CST-1368DR,5536,7730,14999,0.161,551
2021-04-16T01:32:05,42.805,6.029,CST-1368DR,5536,7730,14999,0.161,551
2021-04-16T01:35:07,42.805,6.029,CST-1368DR,5536,7729,14998,0.162,551
2021-04-16T01:38:09,42.805,6.029,CST-1368DR,5536,7730,14999,0.161,551
2021-04-16T01:41:10,42.805,6.029,CST-1368DR,5536,7730,14998,0.162,551
2021-04-16T01:44:12,42.805,6.029,CST-1368DR,5536,7729,14998,0.162,551
2021-04-16T01:47:13,42.805,6.029,CST-1368DR,5536,7729,14997,0.162,551
2021-04-16T01:50:15,42.805,6.029,CST-1368DR,5536,7730,14999,0.161,551
2021-04-16T01:53:17,42.805,6.029,CST-1368DR,5536,7730,15000,0.161,551
2021-04-16T01:56:18,42.805,6.029,CST-1368DR,5536,7730,14999,0.161,551
2021-04-16T01:59:20,42.805,6.029,CST-1368DR,5536,7729,14997,0.162,551
2021-04-16T02:02:21,42.805,6.029,CST-1368DR,5536,7730,14999,0.161,551
2021-04-16T02:05:23,42.805,6.029,CST-1368DR,5536,7730,14999,0.161,551
2021-04-16T02:08:24,42.805,6.029,CST-1368DR,5536,7729,14998,0.162,551
2021-04-16T02:11:26,42.805,6.029,CST-1368DR,5536,7730,14999,0.161,551
2021-04-16T02:14:28,42.805,6.029,CST-1368DR,5535,7730,15001,0.161,551
2021-04-16T02:17:29,42.805,6.029,CST-1368DR,5536,7731,15000,0.161,550
2021-04-16T02:20:31,42.805,6.029,CST-1368DR,5536,7730,15000,0.161,551
2021-04-16T02:23:32,42.805,6.029,CST-1368DR,5536,7730,14998,0.162,551
2021-04-16T02:26:34,42.805,6.029,CST-1368DR,5536,7730,14998,0.162,551
2021-04-16T02:29:36,42.805,6.029,CST-1368DR,5536,7730,14999,0.161,551
2021-04-16T02:32:37,42.805,6.029,CST-1368DR,5536,7731,15000,0.161,551
2021-04-16T02:35:39,42.805,6.029,CST-1368DR,5536,7730,15000,0.161,551
2021-04-16T02:38:40,42.805,6.029,CST-1368DR,5536,7730,14999,0.161,551
2021-04-16T02:41:42,42.805,6.029,CST-1368DR,5536,7730,14999,0.161,551
2021-04-16T02:44:43,42.805,6.029,CST-1368DR,5536,7730,14999,0.161,551
2021-04-16T02:47:45,42.805,6.029,CST-1368DR,5536,7730,14999,0.161,551
2021-04-16T02:50:47,42.805,6.029,CST-1368DR,5536,7730,15000,0.161,551
2021-04-16T02:53:48,42.805,6.029,CST-1368DR,5536,7730,15000,0.161,551
2021-04-16T02:56:50,42.805,6.029,CST-1368DR,5535,7729,15000,0.161,551
2021-04-16T02:59:51,42.805,6.029,CST-1368DR,5536,7730,14998,0.162,551
2021-04-16T03:02:53,42.805,6.029,CST-1368DR,5536,7730,15000,0.161,551
2021-04-16T03:05:54,42.805,6.029,CST-1368DR,5535,7730,15001,0.161,551
2021-04-16T03:08:56,42.805,6.029,CST-1368DR,5535,7730,15002,0.160,551
2021-04-16T03:11:58,42.805,6.029,CST-1368DR,5535,7730,15001,0.161,551
2021-04-16T03:14:59,42.805,6.029,CST-1368DR,5536,7730,14999,0.161,551
2021-04-16T03:18:01,42.805,6.029,CST-1368DR,5535,7730,15002,0.160,551
2021-04-16T03:21:02,42.805,6.029,CST-1368DR,5536,7731,15000,0.161,551
2021-04-16T03:24:04,42.805,6.029,CST-1368DR,5535,7730,15001,0.161,551
2021-04-16T03:27:06,42.805,6.029,CST-1368DR,5535,7729,15000,0.161,551
2021-04-16T03:30:07,42.805,6.029,CST-1368DR,5535,7726,14994,0.163,551
2021-04-16T03:33:09,42.805,6.029,CST-1368DR,5535,7731,15003,0.160,551
2021-04-16T03:36:10,42.805,6.029,CST-1368DR,5535,7730,15002,0.160,551
2021-04-16T03:39:12,42.805,6.029,CST-1368DR,5535,7730,15002,0.160,551
2021-04-16T03:42:13,42.805,6.029,CST-1368DR,5535,7730,15002,0.160,551
2021-04-16T03:45:15,42.805,6.029,CST-1368DR,5535,7730,15002,0.160,551
2021-04-16T03:48:17,42.805,6.029,CST-1368DR,5535,7730,15002,0.160,551
2021-04-16T03:51:18,42.805,6.029,CST-1368DR,5535,7730,15001,0.161,551
2021-04-16T03:54:20,42.805,6.029,CST-1368DR,5535,7730,15002,0.160,551
2021-04-16T03:57:21,42.805,6.029,CST-1368DR,5535,7729,14999,0.161,551
2021-04-16T04:00:23,42.805,6.029,CST-1368DR,5535,7730,15002,0.160,551
2021-04-16T04:03:25,42.805,6.029,CST-1368DR,5535,7730,15001,0.161,551
2021-04-16T04:06:26,42.805,6.029,CST-1368DR,5535,7730,15001,0.161,551
2021-04-16T04:09:28,42.805,6.029,CST-1368DR,5535,7730,15001,0.161,551
2021-04-16T04:12:29,42.805,6.029,CST-1368DR,5535,7730,15001,0.161,551
2021-04-16T04:15:31,42.805,6.029,CST-1368DR,5535,7730,15001,0.161,551
2021-04-16T04:18:32,42.805,6.029,CST-1368DR,5535,7730,15001,0.161,551
2021-04-16T04:21:34,42.805,6.029,CST-1368DR,5535,7730,15002,0.160,551
2021-04-16T04:24:36,42.805,6.029,CST-1368DR,5535,7729,15001,0.161,551
2021-04-16T04:27:37,42.805,6.029,CST-1368DR,5535,7729,15001,0.161,551
2021-04-16T04:30:39,42.805,6.029,CST-1368DR,5535,7730,15002,0.160,551
2021-04-16T04:33:40,42.805,6.029,CST-1368DR,5535,7729,15001,0.161,551
2021-04-16T04:36:42,42.805,6.029,CST-1368DR,5535,7730,15001,0.161,551
2021-04-16T04:39:43,42.805,6.029,CST-1368DR,5535,7730,15001,0.161,551
2021-04-16T04:42:45,42.805,6.029,CST-1368DR,5535,7730,15001,0.161,551
2021-04-16T04:45:47,42.805,6.029,CST-1368DR,5535,7730,15002,0.160,551
2021-04-16T04:48:48,42.805,6.029,CST-1368DR,5535,7730,15002,0.160,551
2021-04-16T04:51:50,42.805,6.029,CST-1368DR,5535,7729,15000,0.161,551
2021-04-16T04:54:51,42.805,6.029,CST-1368DR,5535,7730,15001,0.161,551
2021-04-16T04:57:53,42.805,6.029,CST-1368DR,5535,7730,15001,0.161,551
2021-04-16T05:00:55,42.805,6.029,CST-1368DR,5535,7730,15001,0.161,551
2021-04-16T05:03:56,42.805,6.029,CST-1368DR,5535,7729,15000,0.161,551
2021-04-16T05:06:58,42.805,6.029,CST-1368DR,5535,7730,15001,0.161,551
2021-04-16T05:09:59,42.805,6.029,CST-1368DR,5535,7730,15002,0.160,551
2021-04-16T05:13:01,42.805,6.029,CST-1368DR,5535,7730,15001,0.161,551
2021-04-16T05:16:02,42.805,6.029,CST-1368DR,5535,7730,15001,0.161,551
2021-04-16T05:19:04,42.805,6.029,CST-1368DR,5535,7730,15001,0.161,551
2021-04-16T05:22:06,42.805,6.029,CST-1368DR,5535,7730,15001,0.161,551
2021-04-16T05:25:07,42.805,6.029,CST-1368DR,5535,7730,15001,0.161,551
2021-04-16T05:28:09,42.805,6.029,CST-1368DR,5535,7729,15001,0.161,551
2021-04-16T05:31:10,42.805,6.029,CST-1368DR,5535,7730,15001,0.161,551
2021-04-16T05:34:12,42.805,6.029,CST-1368DR,5535,7730,15001,0.161,551
2021-04-16T05:37:14,42.805,6.029,CST-1368DR,5535,7728,14999,0.161,551
2021-04-16T05:40:15,42.805,6.029,CST-1368DR,5535,7730,15001,0.161,551
2021-04-16T05:43:17,42.805,6.029,CST-1368DR,5535,7730,15001,0.161,551
2021-04-16T05:46:18,42.805,6.029,CST-1368DR,5535,7730,15001,0.161,551
2021-04-16T05:49:20,42.805,6.029,CST-1368DR,5535,7728,14997,0.162,551
2021-04-16T05:52:21,42.805,6.029,CST-1368DR,5535,7729,15000,0.161,551
2021-04-16T05:55:23,42.805,6.029,CST-1368DR,5535,7729,15000,0.161,551
2021-04-16T05:58:25,42.805,6.029,CST-1368DR,5535,7729,15001,0.161,551
2021-04-16T06:01:26,42.805,6.029,CST-1368DR,5535,7730,15001,0.161,551
2021-04-16T06:04:28,42.805,6.029,CST-1368DR,5535,7728,14999,0.161,551
2021-04-16T06:07:29,42.805,6.029,CST-1368DR,5535,7730,15001,0.161,551
2021-04-16T06:10:31,42.805,6.029,CST-1368DR,5535,7730,15001,0.161,551
2021-04-16T06:13:32,42.805,6.029,CST-1368DR,5535,7729,15001,0.161,551
2021-04-16T06:16:34,42.805,6.029,CST-1368DR,5535,7729,14999,0.161,551
2021-04-16T06:19:36,42.805,6.029,CST-1368DR,5535,7728,14999,0.161,551
2021-04-16T06:22:37,42.805,6.029,CST-1368DR,5535,7730,15001,0.161,551
2021-04-16T06:25:39,42.805,6.029,CST-1368DR,5535,7729,15000,0.161,551
2021-04-16T06:28:40,42.805,6.029,CST-1368DR,5535,7728,14999,0.161,551
2021-04-16T06:31:42,42.805,6.029,CST-1368DR,5535,7729,15000,0.161,551
2021-04-16T06:34:44,42.805,6.029,CST-1368DR,5535,7730,15002,0.160,551
2021-04-16T06:37:45,42.805,6.029,CST-1368DR,5535,7729,15001,0.161,551
2021-04-16T06:40:47,42.805,6.029,CST-1368DR,5535,7730,15001,0.161,551
2021-04-16T06:43:48,42.805,6.029,CST-1368DR,5535,7729,15001,0.161,551
2021-04-16T06:46:50,42.805,6.029,CST-1368DR,5535,7729,15001,0.161,551
2021-04-16T06:49:51,42.805,6.029,CST-1368DR,5535,7730,15001,0.161,551
2021-04-16T06:52:53,42.805,6.029,CST-1368DR,5535,7730,15001,0.161,551
2021-04-16T06:55:55,42.805,6.029,CST-1368DR,5535,7729,15000,0.161,551
2021-04-16T06:58:56,42.805,6.029,CST-1368DR,5535,7729,15000,0.161,551
2021-04-16T07:01:58,42.805,6.029,CST-1368DR,5535,7729,15000,0.161,551
2021-04-16T07:04:59,42.805,6.029,CST-1368DR,5535,7730,15001,0.161,551
2021-04-16T07:08:01,42.805,6.029,CST-1368DR,5535,7729,15000,0.161,551
2021-04-16T07:11:03,42.805,6.029,CST-1368DR,5535,7730,15001,0.161,551
2021-04-16T07:14:04,42.805,6.029,CST-1368DR,5535,7729,15000,0.161,551
2021-04-16T07:17:06,42.805,6.029,CST-1368DR,5535,7729,15000,0.161,551
2021-04-16T07:20:07,42.805,6.029,CST-1368DR,5535,7728,14999,0.161,551
2021-04-16T07:23:09,42.805,6.029,CST-1368DR,5535,7729,15001,0.161,551
2021-04-16T07:26:10,42.805,6.029,CST-1368DR,5535,7729,14999,0.161,551
2021-04-16T07:29:12,42.805,6.029,CST-1368DR,5535,7729,15000,0.161,551
2021-04-16T07:32:14,42.805,6.029,CST-1368DR,5535,7729,15000,0.161,551
2021-04-16T07:35:15,42.805,6.029,CST-1368DR,5535,7729,15000,0.161,551
2021-04-16T07:38:17,42.805,6.029,CST-1368DR,5535,7729,14999,0.161,551
2021-04-16T07:41:18,42.805,6.029,CST-1368DR,5535,7728,14998,0.162,551
2021-04-16T07:44:20,42.805,6.029,CST-1368DR,5535,7729,15000,0.161,551
2021-04-16T07:47:22,42.805,6.029,CST-1368DR,5535,7728,14998,0.162,551
2021-04-16T07:50:23,42.805,6.029,CST-1368DR,5535,7729,14999,0.161,551
2021-04-16T07:53:25,42.805,6.029,CST-1368DR,5535,7729,14999,0.161,551
2021-04-16T07:56:26,42.805,6.029,CST-1368DR,5535,7729,14999,0.161,551
2021-04-16T07:59:28,42.805,6.029,CST-1368DR,5535,7729,15000,0.161,551
2021-04-16T08:02:29,42.805,6.029,CST-1368DR,5535,7729,15000,0.161,551
2021-04-16T08:05:31,42.805,6.029,CST-1368DR,5535,7728,14999,0.161,551
2021-04-16T08:08:33,42.805,6.029,CST-1368DR,5535,7725,14993,0.163,551
2021-04-16T08:11:34,42.805,6.029,CST-1368DR,5535,7729,15000,0.161,551
2021-04-16T08:14:36,42.805,6.029,CST-1368DR,5535,7729,14999,0.161,551
2021-04-16T08:17:37,42.805,6.029,CST-1368DR,5535,7729,15000,0.161,551
2021-04-16T08:20:39,42.805,6.029,CST-1368DR,5535,7728,14998,0.162,551
2021-04-16T08:23:40,42.805,6.029,CST-1368DR,5535,7729,14999,0.161,551
2021-04-16T08:26:42,42.805,6.029,CST-1368DR,5535,7729,15000,0.161,551
2021-04-16T08:29:44,42.805,6.029,CST-1368DR,5535,7729,14999,0.161,551
2021-04-16T08:32:45,42.805,6.029,CST-1368DR,5535,7729,15000,0.161,551
2021-04-16T08:35:47,42.805,6.029,CST-1368DR,5535,7729,14999,0.161,551
2021-04-16T08:38:48,42.805,6.029,CST-1368DR,5535,7729,15000,0.161,551
2021-04-16T08:41:50,42.805,6.029,CST-1368DR,5535,7729,15000,0.161,551
2021-04-16T08:44:52,42.805,6.029,CST-1368DR,5535,7729,14999,0.161,551
2021-04-16T08:47:53,42.805,6.029,CST-1368DR,5535,7727,14997,0.162,551
2021-04-16T08:50:55,42.805,6.029,CST-1368DR,5535,7728,14999,0.161,551
2021-04-16T08:53:56,42.805,6.029,CST-1368DR,5535,7728,14997,0.162,551
2021-04-16T08:56:58,42.805,6.029,CST-1368DR,5535,7727,14996,0.162,551
2021-04-16T08:59:59,42.805,6.029,CST-1368DR,5535,7726,14994,0.163,551
2021-04-16T09:03:01,42.805,6.029,CST-1368DR,5535,7727,14997,0.162,551
2021-04-16T09:06:03,42.805,6.029,CST-1368DR,5535,7727,14996,0.162,551
2021-04-16T09:09:04,42.805,6.029,CST-1368DR,5535,7728,14998,0.162,551
2021-04-16T09:12:06,42.805,6.029,CST-1368DR,5535,7727,14997,0.162,551
2021-04-16T09:15:07,42.805,6.029,CST-1368DR,5535,7727,14997,0.162,551
2021-04-16T09:18:09,42.805,6.029,CST-1368DR,5535,7728,14999,0.161,550
2021-04-16T09:21:11,42.805,6.029,CST-1368DR,5535,7726,14994,0.163,551
2021-04-16T09:24:12,42.805,6.029,CST-1368DR,5535,7726,14994,0.163,551
2021-04-16T09:27:14,42.805,6.029,CST-1368DR,5535,7727,14996,0.162,551
2021-04-16T09:30:15,42.805,6.029,CST-1368DR,5535,7726,14995,0.162,551
2021-04-16T09:33:17,42.805,6.029,CST-1368DR,5535,7727,14996,0.162,551
2021-04-16T09:36:18,42.805,6.029,CST-1368DR,5535,7727,14996,0.162,551
2021-04-16T09:39:20,42.805,6.029,CST-1368DR,5535,7727,14996,0.162,551
2021-04-16T09:42:22,42.805,6.029,CST-1368DR,5535,7727,14997,0.162,551
2021-04-16T09:45:23,42.805,6.029,CST-1368DR,5534,7727,14998,0.162,551
2021-04-16T09:48:25,42.805,6.029,CST-1368DR,5535,7725,14993,0.163,551
2021-04-16T09:51:26,42.805,6.029,CST-1368DR,5535,7728,14998,0.162,551
2021-04-16T09:54:28,42.805,6.029,CST-1368DR,5535,7727,14995,0.162,551
2021-04-16T09:57:29,42.805,6.029,CST-1368DR,5535,7727,14997,0.162,551
2021-04-16T10:00:31,42.805,6.029,CST-1368DR,5535,7726,14994,0.163,551
2021-04-16T10:03:33,42.805,6.029,CST-1368DR,5535,7727,14996,0.162,551
2021-04-16T10:06:34,42.805,6.029,CST-1368DR,5535,7726,14994,0.163,551
2021-04-16T10:09:36,42.805,6.029,CST-1368DR,5535,7727,14995,0.162,551
2021-04-16T10:12:37,42.805,6.029,CST-1368DR,5534,7726,14996,0.162,551
2021-04-16T10:15:39,42.805,6.029,CST-1368DR,5534,7726,14996,0.162,551
2021-04-16T10:18:41,42.805,6.029,CST-1368DR,5535,7726,14995,0.162,550
2021-04-16T10:21:42,42.805,6.029,CST-1368DR,5534,7726,14997,0.162,551
2021-04-16T10:24:44,42.805,6.029,CST-1368DR,5535,7726,14995,0.162,551
2021-04-16T10:27:45,42.805,6.029,CST-1368DR,5534,7726,14997,0.162,551
2021-04-16T10:30:47,42.805,6.029,CST-1368DR,5534,7727,14998,0.162,551
2021-04-16T10:33:48,42.805,6.029,CST-1368DR,5534,7726,14997,0.162,551
2021-04-16T10:36:50,42.805,6.029,CST-1368DR,5534,7726,14997,0.162,551
2021-04-16T10:39:52,42.805,6.029,CST-1368DR,5534,7726,14996,0.162,551
2021-04-16T10:42:53,42.805,6.029,CST-1368DR,5534,7726,14997,0.162,551
2021-04-16T10:45:55,42.805,6.029,CST-1368DR,5534,7726,14996,0.162,551
2021-04-16T10:48:56,42.805,6.029,CST-1368DR,5534,7726,14997,0.162,551
2021-04-16T10:51:58,42.805,6.029,CST-1368DR,5534,7721,14987,0.164,551
2021-04-16T10:55:00,42.805,6.029,CST-1368DR,5534,7726,14997,0.162,551
2021-04-16T10:58:01,42.805,6.029,CST-1368DR,5534,7726,14996,0.162,551
2021-04-16T11:01:03,42.805,6.029,CST-1368DR,5534,7725,14995,0.162,551
2021-04-16T11:04:04,42.805,6.029,CST-1368DR,5534,7726,14996,0.162,551
2021-04-16T11:07:06,42.805,6.029,CST-1368DR,5534,7726,14997,0.162,551
2021-04-16T11:10:07,42.805,6.029,CST-1368DR,5534,7725,14995,0.162,551
2021-04-16T11:13:09,42.805,6.029,CST-1368DR,5534,7726,14997,0.162,551
2021-04-16T11:16:11,42.805,6.029,CST-1368DR,5534,7726,14996,0.162,551
2021-04-16T11:19:12,42.805,6.029,CST-1368DR,5534,7724,14993,0.163,551
2021-04-16T11:22:14,42.805,6.029,CST-1368DR,5534,7725,14994,0.163,550
2021-04-16T11:25:15,42.805,6.029,CST-1368DR,5535,7726,14994,0.163,551
2021-04-16T11:28:17,42.805,6.029,CST-1368DR,5534,7725,14995,0.162,551
2021-04-16T11:31:18,42.805,6.029,CST-1368DR,5534,7726,14996,0.162,551
2021-04-16T11:34:20,42.805,6.029,CST-1368DR,5534,7726,14996,0.162,551
2021-04-16T11:37:22,42.805,6.029,CST-1368DR,5534,7725,14994,0.163,551
2021-04-16T11:40:23,42.805,6.029,CST-1368DR,5534,7724,14993,0.163,551
2021-04-16T11:43:25,42.805,6.029,CST-1368DR,5534,7726,14997,0.162,551
2021-04-16T11:46:26,42.805,6.029,CST-1368DR,5534,7726,14997,0.162,551
2021-04-16T11:49:28,42.805,6.029,CST-1368DR,5534,7724,14993,0.163,551
2021-04-16T11:52:30,42.805,6.029,CST-1368DR,5534,7724,14993,0.163,551
2021-04-16T11:55:31,42.805,6.029,CST-1368DR,5534,7723,14990,0.164,551
2021-04-16T11:58:33,42.805,6.029,CST-1368DR,5534,7726,14996,0.162,551
2021-04-16T12:01:34,42.805,6.029,CST-1368DR,5534,7725,14995,0.162,551
2021-04-16T12:04:36,42.805,6.029,CST-1368DR,5534,7724,14993,0.163,551
2021-04-16T12:07:37,42.805,6.029,CST-1368DR,5534,7726,14996,0.162,551
2021-04-16T12:10:39,42.805,6.029,CST-1368DR,5534,7724,14993,0.163,551
2021-04-16T12:13:41,42.805,6.029,CST-1368DR,5534,7724,14992,0.163,551
2021-04-16T12:16:42,42.805,6.029,CST-1368DR,5534,7724,14993,0.163,551
2021-04-16T12:19:44,42.805,6.029,CST-1368DR,5534,7725,14995,0.162,551
2021-04-16T12:22:45,42.805,6.029,CST-1368DR,5534,7726,14996,0.162,551
2021-04-16T12:25:47,42.805,6.029,CST-1368DR,5534,7726,14996,0.162,551
2021-04-16T12:28:49,42.805,6.029,CST-1368DR,5534,7726,14996,0.162,551
2021-04-16T12:31:50,42.805,6.029,CST-1368DR,5534,7726,14996,0.162,551
2021-04-16T12:34:52,42.805,6.029,CST-1368DR,5534,7724,14993,0.163,551
2021-04-16T12:37:53,42.805,6.029,CST-1368DR,5534,7726,14996,0.162,551
2021-04-16T12:40:55,42.805,6.029,CST-1368DR,5534,7725,14995,0.162,551
2021-04-16T12:43:56,42.805,6.029,CST-1368DR,5534,7724,14993,0.163,551
2021-04-16T12:46:58,42.805,6.029,CST-1368DR,5534,7724,14993,0.163,551
2021-04-16T12:50:00,42.805,6.029,CST-1368DR,5534,7726,14997,0.162,551
2021-04-16T12:53:01,42.805,6.029,CST-1368DR,5534,7726,14997,0.162,551
2021-04-16T12:56:03,42.805,6.029,CST-1368DR,5534,7725,14994,0.163,551
2021-04-16T12:59:04,42.805,6.029,CST-1368DR,5534,7726,14996,0.162,551
2021-04-16T13:02:06,42.805,6.029,CST-1368DR,5534,7726,14996,0.162,551
2021-04-16T13:05:08,42.805,6.029,CST-1368DR,5534,7726,14997,0.162,551
2021-04-16T13:08:09,42.805,6.029,CST-1368DR,5534,7726,14997,0.162,551
2021-04-16T13:11:11,42.805,6.029,CST-1368DR,5534,7726,14996,0.162,551
2021-04-16T13:14:12,42.805,6.029,CST-1368DR,5534,7726,14997,0.162,551
2021-04-16T13:17:14,42.805,6.029,CST-1368DR,5534,7725,14995,0.162,551
2021-04-16T13:20:15,42.805,6.029,CST-1368DR,5534,7726,14997,0.162,551
2021-04-16T13:23:17,42.805,6.029,CST-1368DR,5534,7727,14998,0.162,551
2021-04-16T13:26:19,42.805,6.029,CST-1368DR,5534,7727,14998,0.162,551
2021-04-16T13:29:20,42.805,6.029,CST-1368DR,5534,7727,14999,0.161,551
2021-04-16T13:32:22,42.805,6.029,CST-1368DR,5534,7727,14998,0.162,551
2021-04-16T13:35:23,42.805,6.029,CST-1368DR,5534,7726,14997,0.162,551
2021-04-16T13:38:25,42.805,6.029,CST-1368DR,5534,7727,14998,0.162,551
2021-04-16T13:41:27,42.805,6.029,CST-1368DR,5534,7727,14999,0.161,551
2021-04-16T13:44:28,42.805,6.029,CST-1368DR,5534,7726,14997,0.162,551
2021-04-16T13:47:30,42.805,6.029,CST-1368DR,5534,7727,14998,0.162,551
2021-04-16T13:50:31,42.805,6.029,CST-1368DR,5534,7726,14997,0.162,551
2021-04-16T13:53:33,42.805,6.029,CST-1368DR,5534,7727,14998,0.162,551
2021-04-16T13:56:34,42.805,6.029,CST-1368DR,5534,7727,14998,0.162,551
2021-04-16T13:59:36,42.805,6.029,CST-1368DR,5534,7727,14999,0.161,551
2021-04-16T14:02:38,42.805,6.029,CST-1368DR,5534,7727,14998,0.162,551
2021-04-16T14:05:39,42.805,6.029,CST-1368DR,5534,7727,14999,0.161,551
2021-04-16T14:08:41,42.805,6.029,CST-1368DR,5534,7727,14999,0.161,551
2021-04-16T14:11:42,42.805,6.029,CST-1368DR,5534,7726,14996,0.162,551
2021-04-16T14:14:44,42.805,6.029,CST-1368DR,5534,7727,14999,0.161,551
2021-04-16T14:17:45,42.805,6.029,CST-1368DR,5534,7727,14999,0.161,551
2021-04-16T14:20:47,42.805,6.029,CST-1368DR,5534,7727,14998,0.162,551
2021-04-16T14:23:49,42.805,6.029,CST-1368DR,5534,7728,15000,0.161,551
2021-04-16T14:26:50,42.805,6.029,CST-1368DR,5534,7724,14992,0.163,551
2021-04-16T14:29:52,42.805,6.029,CST-1368DR,5534,7726,14996,0.162,551
2021-04-16T14:32:53,42.805,6.029,CST-1368DR,5534,7726,14997,0.162,551
2021-04-16T14:35:55,42.805,6.029,CST-1368DR,5534,7726,14997,0.162,551
2021-04-16T14:38:57,42.805,6.029,CST-1368DR,5534,7726,14996,0.162,551
2021-04-16T14:41:58,42.805,6.029,CST-1368DR,5534,7727,14998,0.162,551
2021-04-16T14:45:00,42.805,6.029,CST-1368DR,5534,7726,14996,0.162,551
2021-04-16T14:48:01,42.805,6.029,CST-1368DR,5534,7727,14998,0.162,551
2021-04-16T14:51:03,42.805,6.029,CST-1368DR,5534,7728,15000,0.161,551
2021-04-16T14:54:04,42.805,6.029,CST-1368DR,5534,7727,14998,0.162,551
2021-04-16T14:57:06,42.805,6.029,CST-1368DR,5534,7728,15000,0.161,551
2021-04-16T15:00:08,42.805,6.029,CST-1368DR,5534,7727,14999,0.161,551
2021-04-16T15:03:09,42.805,6.029,CST-1368DR,5534,7726,14997,0.162,551
2021-04-16T15:06:11,42.805,6.029,CST-1368DR,5534,7726,14997,0.162,551
2021-04-16T15:09:12,42.805,6.029,CST-1368DR,5534,7727,14999,0.161,551
2021-04-16T15:12:14,42.805,6.029,CST-1368DR,5534,7727,14998,0.162,550
2021-04-16T15:15:16,42.805,6.029,CST-1368DR,5534,7727,14999,0.161,551
2021-04-16T15:18:17,42.805,6.029,CST-1368DR,5534,7727,14999,0.161,551
2021-04-16T15:21:19,42.805,6.029,CST-1368DR,5534,7727,14998,0.162,551
2021-04-16T15:24:20,42.805,6.029,CST-1368DR,5534,7727,14999,0.161,551
2021-04-16T15:27:22,42.805,6.029,CST-1368DR,5534,7728,15000,0.161,551
2021-04-16T15:30:23,42.805,6.029,CST-1368DR,5534,7727,14999,0.161,551
2021-04-16T15:33:25,42.805,6.029,CST-1368DR,5534,7726,14997,0.162,551
2021-04-16T15:36:27,42.805,6.029,CST-1368DR,5534,7727,14999,0.161,551
2021-04-16T15:39:28,42.805,6.029,CST-1368DR,5534,7726,14997,0.162,551
2021-04-16T15:42:30,42.805,6.029,CST-1368DR,5534,7726,14996,0.162,551
2021-04-16T15:45:31,42.805,6.029,CST-1368DR,5534,7727,14998,0.162,551
2021-04-16T15:48:33,42.805,6.029,CST-1368DR,5534,7727,14998,0.162,551
2021-04-16T15:51:34,42.805,6.029,CST-1368DR,5534,7727,14999,0.161,551
2021-04-16T15:54:36,42.805,6.029,CST-1368DR,5534,7727,14999,0.161,551
2021-04-16T15:57:38,42.805,6.029,CST-1368DR,5534,7727,14998,0.162,551
2021-04-16T16:00:39,42.805,6.029,CST-1368DR,5534,7728,15000,0.161,550
2021-04-16T16:03:41,42.805,6.029,CST-1368DR,5534,7727,14998,0.162,551
2021-04-16T16:06:42,42.805,6.029,CST-1368DR,5534,7726,14997,0.162,551
2021-04-16T16:09:44,42.805,6.029,CST-1368DR,5534,7727,14998,0.162,551
2021-04-16T16:12:46,42.805,6.029,CST-1368DR,5534,7727,14998,0.162,551
2021-04-16T16:15:47,42.805,6.029,CST-1368DR,5534,7727,14998,0.162,551
2021-04-16T16:18:49,42.805,6.029,CST-1368DR,5534,7726,14996,0.162,551
2021-04-16T16:21:50,42.805,6.029,CST-1368DR,5534,7726,14996,0.162,551
2021-04-16T16:24:52,42.805,6.029,CST-1368DR,5534,7727,14998,0.162,551
2021-04-16T16:27:53,42.805,6.029,CST-1368DR,5534,7727,14998,0.162,551
2021-04-16T16:30:55,42.805,6.029,CST-1368DR,5534,7726,14997,0.162,551
2021-04-16T16:33:57,42.805,6.029,CST-1368DR,5534,7726,14997,0.162,551
2021-04-16T16:36:58,42.805,6.029,CST-1368DR,5534,7727,14998,0.162,551
2021-04-16T16:40:00,42.805,6.029,CST-1368DR,5534,7726,14996,0.162,551
2021-04-16T16:43:01,42.805,6.029,CST-1368DR,5534,7726,14997,0.162,551
2021-04-16T16:46:03,42.805,6.029,CST-1368DR,5534,7727,14998,0.162,551
2021-04-16T16:49:05,42.805,6.029,CST-1368DR,5534,7726,14997,0.162,551
2021-04-16T16:52:06,42.805,6.029,CST-1368DR,5534,7726,14997,0.162,551